Location: Newark
(50.0306°N, 2.3272°E)
Time: 01:55:29
(UTC+00:00)

A-11 Canister half - Pass Details

Date: 17 December 2019
Orbit: 1525 x 1684 km, 47.3° (Epoch: 28 January)

Event Time Altitude Azimuth Distance (km) Brightness Sun altitude
Rises 10:46:23 0° 289° (WNW) 4,942 11.3 15.4°
Reaches altitude 10° 10:50:02 10° 280° (W) 3,944 11.0 15.5°
Maximum altitude 10:58:24 31° 224° (SW) 2,609 10.9 15.8°
Drops below altitude 10° 11:06:37 10° 167° (SSE) 3,855 13.9 16.1°
Sets 11:10:09 0° 158° (SSE) 4,815 13.2 16.2°
